Wind_Speed
31 31 31 32 33 33 33 33 32 32 31 30 29 29 28 27 26 25 24 24 24 24 23 24 24 24 24 25 25 25 25 25 25 26 28 30 31 33 34 35 36 36 36 37 38 39 38 35 34 34 34 35 34 35 35 35 35 35 35 33 31 30 29 29 28 28 28 27 28 30 30 27 24 25 27 29 32 34 36 38 38 35 34 34 35 36 37 38
32 32 32 32 33 34 34 34 34 33 33 32 31 30 30 29 28 27 26 26 25 25 25 24 24 24 24 24 25 24 24 24 25 26 28 30 31 32 34 36 37 37 38 38 39 40 38 35 34 34 34 34 33 33 33 33 33 33 32 31 31 30 30 29 29 29 29 29 29 30 31 28 25 25 27 30 33 35 37 38 36 35 36 37 38 38 38 37
34 34 33 34 34 35 35 35 35 35 34 34 33 32 32 31 30 29 28 27 26 26 26 25 25 24 24 24 24 24 24 24 25 26 27 29 31 32 33 35 37 37 37 37 38 39 37 35 34 35 35 35 34 33 33 32 31 30 29 29 29 29 30 30 29 28 28 29 30 31 31 30 28 27 28 31 34 37 37 36 34 35 37 38 39 38 37 36
36 36 35 35 36 36 36 36 36 36 36 36 35 34 33 33 32 31 30 29 28 27 27 26 25 24 25 24 24 24 24 25 25 26 27 29 31 32 33 34 36 37 37 37 37 38 36 33 33 34 35 34 34 34 34 32 31 28 27 27 27 27 27 28 28 27 27 28 29 31 32 31 30 29 30 33 36 36 35 34 35 37 37 38 37 37 36 36
38 38 37 37 37 37 38 38 38 38 38 37 37 36 35 34 34 33 32 31 30 29 28 27 26 25 25 25 24 25 25 25 26 27 28 29 31 32 33 34 36 38 38 37 37 38 36 32 30 31 33 32 32 33 34 33 32 29 26 25 25 24 24 24 25 26 26 27 28 29 32 32 31 31 32 34 34 34 34 35 36 37 37 37 37 36 37 38
39 40 39 39 39 39 39 39 39 39 39 39 39 38 37 36 35 34 33 32 31 30 29 28 27 26 25 25 25 25 25 26 26 28 29 30 31 32 34 34 36 39 39 38 37 38 36 32 29 29 31 31 31 31 32 32 32 31 29 27 26 25 24 23 23 24 24 24 26 28 30 32 32 32 33 33 33 33 35 35 35 36 37 37 37 37 38 40
41 42 42 41 41 41 41 41 41 41 41 41 41 40 39 38 37 36 35 34 33 31 30 28 27 26 26 26 26 26 26 26 27 28 29 30 31 33 35 36 37 39 39 39 38 38 38 35 31 29 30 31 30 29 30 31 30 30 30 29 28 27 26 25 24 23 23 22 23 25 27 29 31 31 32 34 34 34 35 35 35 36 37 37 38 39 41 43
41 43 43 43 43 43 43 43 43 43 43 43 42 42 41 40 39 38 37 35 34 33 31 29 28 27 27 27 26 27 27 27 28 29 30 30 32 34 36 38 38 38 39 40 39 39 40 39 35 31 29 30 30 28 28 29 29 29 28 28 27 27 27 26 26 25 23 22 22 22 24 27 29 31 34 35 35 35 36 36 36 37 39 40 40 42 44 45
42 43 44 45 44 44 44 45 45 45 45 45 44 44 43 42 41 40 38 37 36 34 33 31 29 28 28 28 28 28 28 28 29 30 30 31 32 34 37 38 37 38 39 41 40 40 40 40 38 34 31 30 30 29 27 27 28 28 27 27 25 25 25 25 25 25 25 24 23 24 25 27 30 32 35 36 36 37 37 37 38 40 42 42 43 44 45 46
43 44 45 46 46 46 46 46 47 47 47 47 46 45 44 44 43 41 40 38 37 35 34 32 30 29 29 29 29 29 29 29 30 31 31 32 33 35 37 38 37 37 39 41 41 40 40 40 39 37 34 31 30 30 29 28 27 27 27 27 26 26 25 25 25 25 26 25 25 26 27 29 31 33 35 38 39 39 39 39 41 43 43 43 44 46 47 46
44 45 45 46 47 47 47 48 48 48 48 48 48 47 46 45 44 43 42 40 38 36 35 33 31 30 30 30 30 30 31 31 31 32 32 33 34 35 37 38 38 38 39 40 41 41 41 40 39 37 36 34 31 30 30 30 29 28 28 28 27 27 27 27 27 27 27 27 27 28 30 31 31 33 36 38 40 41 41 42 44 45 45 46 47 48 48 47
44 45 46 46 47 47 48 49 49 49 50 50 49 49 47 46 45 44 43 41 39 37 36 34 32 31 31 30 31 32 32 32 32 33 33 34 35 36 37 39 39 39 39 39 40 41 42 40 38 37 36 36 34 32 31 30 31 30 29 29 29 29 29 29 30 30 29 28 28 28 32 32 30 32 35 38 41 42 43 45 46 47 47 48 49 49 48 48
44 46 47 47 47 48 48 49 50 50 50 50 50 50 49 47 46 45 44 42 40 37 36 35 33 32 32 31 31 33 34 34 33 33 34 35 35 36 38 39 40 40 39 39 40 41 41 39 36 35 36 36 35 34 32 31 32 32 32 31 32 32 32 32 33 33 32 32 31 29 33 36 32 33 35 38 41 43 45 46 47 48 49 50 50 49 48 50
44 46 47 48 47 48 48 49 50 51 51 51 51 50 50 48 47 46 44 43 41 38 37 36 35 34 34 32 32 33 34 35 35 34 35 35 35 36 38 40 41 41 40 39 40 41 41 38 35 34 35 35 35 34 33 33 32 33 33 33 33 34 35 36 36 37 37 37 37 35 36 40 38 37 39 42 44 45 46 47 48 49 49 49 50 49 50 53
45 46 47 48 49 48 48 49 50 51 52 52 51 51 50 49 47 46 45 43 42 40 38 36 36 36 36 34 33 33 35 36 36 36 36 35 35 36 38 40 41 41 40 41 41 41 41 38 35 35 35 34 34 34 33 33 32 32 33 34 34 34 35 36 37 39 40 41 41 40 39 42 42 42 44 46 47 47 47 47 47 47 47 48 50 51 53 55
46 46 47 48 49 50 50 50 51 52 52 53 52 51 51 49 47 46 45 44 42 41 39 38 37 37 38 37 35 34 35 37 38 37 37 36 36 36 38 40 41 41 41 42 42 42 41 39 37 36 35 34 33 33 33 33 32 32 32 33 33 33 34 35 36 37 38 40 42 41 40 42 43 45 46 47 48 47 46 46 46 47 49 51 52 52 54 56
47 47 47 48 49 51 51 51 51 52 52 53 52 51 51 50 48 46 46 44 42 41 39 39 38 38 40 39 38 37 37 38 39 39 38 37 37 37 39 40 41 41 41 42 43 42 42 40 38 37 36 35 34 33 33 33 33 33 32 32 32 32 32 33 35 35 36 37 38 39 39 41 43 44 45 45 45 44 45 46 47 50 53 54 54 54 56 58
47 48 48 48 49 50 51 51 51 52 52 53 53 51 50 50 49 47 46 44 42 40 40 40 40 40 42 42 41 40 39 40 42 41 40 39 39 39 40 41 42 41 42 42 43 44 43 42 40 39 37 36 35 34 33 32 32 32 32 32 31 32 32 32 33 35 35 35 36 37 37 40 41 42 42 42 43 44 46 48 50 53 56 55 55 57 59 61
46 47 48 48 49 49 51 51 51 52 52 53 53 52 51 50 49 47 46 45 42 41 40 41 41 41 44 45 44 43 42 42 44 44 42 41 41 41 42 43 43 42 43 44 44 45 45 44 42 41 39 38 37 36 35 33 32 32 32 32 31 31 34 33 32 33 34 35 37 36 36 39 41 42 42 43 45 47 49 50 52 55 55 55 57 60 61 62
46 46 47 48 48 48 49 51 51 51 52 52 53 53 52 51 49 48 47 46 43 41 41 42 42 42 44 46 47 46 46 45 45 46 45 44 43 43 43 44 44 43 44 45 46 46 46 45 44 43 41 40 39 38 37 36 35 34 33 33 32 31 34 35 34 34 34 34 35 36 37 41 44 45 46 47 48 49 49 50 53 54 54 57 60 61 62 63
45 46 46 46 47 48 48 50 50 50 51 52 52 52 53 51 49 48 47 47 44 42 42 42 42 43 44 46 47 48 49 48 47 49 48 46 45 44 44 44 44 44 45 47 48 48 47 45 44 43 42 42 40 39 39 39 40 38 36 34 34 33 34 36 36 35 36 36 36 36 37 41 46 47 47 48 48 48 49 50 52 53 56 59 61 61 63 64
44 45 45 46 46 47 47 48 49 50 51 51 51 52 52 51 50 48 47 47 45 43 44 43 43 44 46 47 49 50 51 50 49 51 50 48 47 46 45 45 45 45 47 49 48 48 48 46 45 44 43 43 42 41 40 41 42 41 38 36 35 34 34 36 37 37 38 38 37 37 36 40 45 48 49 48 49 50 49 50 53 56 58 60 60 62 64 65
44 44 45 45 46 46 46 47 48 49 49 50 51 52 52 51 49 48 47 47 47 46 45 44 44 46 47 48 50 51 51 51 51 53 52 49 49 47 46 46 45 46 49 50 50 49 49 47 46 45 44 44 44 42 41 42 43 42 40 37 37 37 35 35 36 37 39 40 39 37 35 38 45 50 52 52 52 52 52 53 57 59 59 59 61 63 65 68
44 45 45 45 46 46 47 47 47 48 48 49 50 51 51 50 49 48 47 45 46 49 48 46 46 48 49 49 51 51 51 52 52 53 52 51 50 48 47 46 46 48 50 51 51 50 50 48 47 46 45 45 45 44 42 42 44 44 42 39 38 39 39 37 36 38 40 42 44 42 34 33 43 52 55 56 54 53 55 58 60 59 59 60 63 66 69 71
44 44 45 46 46 46 47 47 47 47 47 48 49 50 50 50 49 48 48 44 44 50 51 49 50 52 52 52 52 52 52 52 52 52 52 51 51 49 49 48 47 49 50 51 51 51 51 49 48 46 46 46 46 46 45 43 43 44 45 43 40 41 42 42 41 40 42 43 50 52 39 30 40 52 57 58 56 56 58 60 60 59 59 61 65 68 70 72
45 43 44 46 46 46 46 47 48 47 46 47 48 49 49 50 49 48 48 44 42 50 54 51 53 55 55 55 54 52 52 52 52 52 52 52 51 51 50 49 49 50 51 51 50 52 52 50 50 48 48 48 48 48 48 46 45 45 47 47 46 47 47 47 46 46 46 44 51 61 51 36 39 52 60 61 58 59 61 61 60 59 60 64 68 70 71 73
47 45 44 45 46 46 46 47 49 48 47 48 48 49 49 49 49 48 48 43 41 49 55 53 55 56 56 56 55 53 52 53 53 53 54 53 52 52 52 51 50 50 52 51 50 52 52 51 52 51 50 50 50 51 50 50 49 49 51 51 52 53 52 52 51 51 51 46 50 63 60 47 43 51 62 64 61 61 63 62 60 60 63 67 70 71 73 75
50 48 46 46 46 46 46 47 49 49 49 49 49 50 49 49 49 48 48 43 40 48 54 55 56 56 57 56 55 54 54 54 54 53 54 54 53 54 53 53 52 51 52 52 52 53 53 52 54 54 53 52 52 53 54 53 53 54 55 56 57 57 57 57 56 56 55 49 52 62 63 55 47 52 64 66 63 64 64 63 63 64 67 69 70 73 75 76
53 51 50 49 48 47 47 47 49 50 50 51 51 51 50 50 49 49 49 43 41 48 53 56 58 57 57 56 55 55 55 55 55 54 54 54 54 55 55 55 54 53 53 54 53 55 55 54 56 56 55 55 55 56 56 57 57 57 59 60 62 62 61 62 60 61 59 53 55 62 64 61 52 54 67 68 66 67 67 67 68 68 70 70 72 74 75 77
55 54 53 52 51 50 49 48 49 50 52 52 52 52 52 51 50 51 49 45 47 51 54 57 58 58 57 57 56 55 55 55 54 54 54 54 54 55 57 57 57 56 56 56 56 56 57 57 57 58 58 58 58 58 59 60 60 61 62 64 65 66 66 66 64 65 63 58 59 63 65 65 58 57 66 69 68 71 71 71 71 71 71 72 74 75 77 80
59 58 57 55 55 54 53 52 51 52 53 53 54 53 53 52 52 51 48 48 53 54 55 57 57 57 57 56 55 55 54 54 55 54 54 54 55 56 59 61 60 59 58 59 60 58 58 59 59 60 61 60 60 61 62 63 64 65 66 68 68 69 70 69 67 68 66 62 63 64 65 67 63 62 67 69 69 71 72 72 72 72 72 74 75 77 80 83
62 61 60 59 58 58 57 56 55 55 55 55 55 55 54 53 52 50 50 54 57 55 56 58 57 57 56 54 54 54 54 55 56 56 56 56 57 58 61 64 64 62 60 62 63 62 61 61 61 62 63 63 63 64 65 66 68 69 70 72 72 73 74 72 70 70 67 65 66 66 66 66 64 66 68 68 69 70 71 72 73 74 75 76 78 81 83 84
65 64 63 62 62 61 61 60 59 59 59 59 58 57 56 54 50 50 53 58 59 58 59 60 58 57 56 54 55 55 55 56 57 59 59 59 59 60 63 66 67 67 65 65 66 65 63 62 64 65 64 65 66 67 69 70 72 73 74 76 77 79 79 76 75 73 70 68 67 68 69 66 65 67 67 68 69 70 72 74 75 76 78 80 82 83 84 85
68 67 66 66 65 65 66 65 64 63 62 62 61 60 58 54 51 53 57 60 62 61 62 62 61 60 58 57 57 57 58 59 60 61 62 61 61 62 64 67 70 71 70 70 69 67 64 63 65 66 66 67 69 70 72 73 75 76 77 78 80 82 84 81 80 78 75 72 69 69 70 68 67 68 67 69 72 74 76 77 78 79 80 82 83 85 87 89
70 70 69 68 68 69 70 70 68 67 67 65 64 62 58 55 54 57 59 61 63 63 63 64 63 62 61 60 60 60 61 62 63 64 65 64 64 64 66 69 72 73 75 75 73 71 67 65 66 68 68 70 71 73 74 76 78 77 78 80 81 83 85 85 83 82 82 79 72 70 69 67 68 68 68 73 76 79 80 81 81 81 81 82 83 86 90 92
73 72 72 71 71 73 75 73 72 72 71 70 67 62 58 57 59 60 61 62 64 65 65 65 65 65 64 64 64 64 65 65 65 67 67 67 67 66 68 71 73 75 77 77 76 74 71 68 68 70 71 72 73 74 76 79 80 80 80 82 83 85 86 87 86 85 87 86 78 73 70 68 67 66 68 76 79 80 82 83 83 82 80 81 84 88 91 92
74 74 74 73 75 78 78 77 77 76 75 74 69 63 61 62 63 64 65 67 68 68 69 68 67 68 68 67 67 67 69 69 69 70 70 69 68 67 70 74 75 77 78 79 79 78 76 72 71 72 73 74 75 76 79 81 81 82 83 84 84 85 86 88 89 89 91 91 83 77 72 70 69 68 70 78 81 81 83 85 84 82 82 83 87 90 93 93
74 74 73 74 78 82 82 81 80 79 79 76 69 64 64 65 65 68 70 72 72 72 72 71 71 71 70 70 70 71 72 72 71 72 72 72 70 69 72 76 77 79 81 82 82 81 81 77 73 74 76 76 77 79 81 82 82 83 83 83 85 86 87 90 93 93 94 93 88 81 74 72 73 72 74 81 84 84 87 88 86 84 84 87 90 93 95 94
74 73 72 73 80 85 86 85 84 83 81 75 70 68 68 67 68 71 73 74 74 74 74 73 73 74 73 73 73 73 74 74 74 75 75 74 73 73 76 78 80 81 83 85 86 85 85 82 77 76 77 78 79 81 82 83 84 85 85 85 85 87 90 92 94 95 94 94 92 86 80 75 74 75 80 85 86 87 90 90 87 86 87 89 93 95 97 96
75 74 70 72 80 86 87 87 85 83 80 75 72 71 70 71 71 72 74 75 76 76 75 74 75 75 74 75 75 76 77 77 77 78 78 78 77 78 80 82 83 84 86 88 88 87 87 85 80 77 78 79 79 81 82 83 85 86 85 86 86 89 91 92 93 93 94 94 92 91 88 78 75 81 86 87 87 89 93 92 90 90 91 94 97 99 99 101
78 75 70 72 81 86 89 87 82 78 76 73 71 72 73 75 75 75 76 78 78 78 78 77 77 77 77 77 78 79 81 80 80 81 81 80 81 82 84 85 86 87 88 89 88 88 89 87 82 79 79 79 79 81 82 82 84 85 84 85 87 89 91 93 93 91 92 93 90 95 93 79 77 87 89 88 90 93 95 95 94 95 96 99 101 101 103 105
82 79 74 76 81 85 89 86 79 76 73 69 69 74 77 77 76 77 78 80 82 82 82 81 80 80 81 81 82 84 85 84 83 83 83 83 84 86 87 87 87 87 88 89 88 89 89 87 84 81 80 80 79 79 81 82 84 84 83 84 87 89 91 93 92 90 91 91 92 99 96 82 81 90 90 91 94 96 98 99 99 99 101 103 104 104 107 109
86 84 82 82 83 85 88 84 79 76 73 70 72 75 75 75 74 75 77 81 84 85 86 85 83 84 85 86 87 87 88 88 86 86 87 86 86 87 87 87 86 87 87 87 86 87 88 86 84 82 81 79 77 78 81 83 84 84 82 84 87 88 90 92 92 92 93 92 97 103 97 87 88 92 92 94 98 100 102 102 101 103 105 107 108 108 110 111
91 90 88 87 87 88 87 83 80 79 76 75 76 75 74 74 72 72 76 80 83 85 86 85 85 86 87 88 89 89 89 90 88 87 88 87 85 85 86 86 85 85 85 86 86 86 86 85 85 83 81 79 77 79 82 84 85 83 82 84 86 88 91 92 93 96 96 95 100 101 96 91 92 93 94 98 104 106 106 105 104 106 108 111 112 111 112 114
97 95 92 90 90 91 88 84 84 84 81 80 80 77 77 76 73 73 76 79 80 83 84 83 84 86 87 87 87 87 88 89 88 88 86 85 83 83 84 86 85 85 86 87 87 87 87 85 83 84 84 82 79 81 84 86 85 84 83 85 88 90 93 94 96 99 99 99 99 97 96 94 93 95 99 105 111 111 108 107 108 110 113 115 114 114 116 117
101 99 96 93 93 92 90 87 88 87 85 84 85 82 80 78 76 76 77 77 77 80 81 82 83 83 83 84 86 88 88 88 89 86 84 83 84 85 86 87 87 88 88 88 89 89 87 84 82 83 86 86 84 85 87 87 86 85 85 86 89 91 93 96 100 100 101 104 100 96 99 97 92 98 108 112 113 111 109 110 112 115 117 117 117 118 120 120
105 102 97 95 96 95 92 90 91 90 88 89 89 85 82 81 80 78 78 78 78 81 83 82 81 81 82 85 89 89 87 88 88 85 84 86 88 89 89 89 90 90 90 90 90 89 89 85 83 85 89 88 88 90 91 90 89 87 86 88 91 92 94 98 101 100 103 107 101 95 101 100 96 104 114 114 112 111 111 114 117 119 119 119 120 121 121 121
108 103 100 99 100 97 92 91 93 95 96 95 92 88 84 82 80 80 81 83 83 84 84 83 81 82 84 88 92 91 87 87 87 86 89 92 93 92 92 91 92 92 91 91 90 91 91 88 85 89 92 91 92 94 95 96 94 90 88 90 93 95 97 100 101 102 106 109 102 99 104 103 102 110 115 112 112 113 115 119 121 121 120 121 123 123 122 124
111 106 104 103 103 100 96 94 97 100 100 98 96 92 87 84 83 84 86 88 88 86 88 87 84 84 88 92 93 91 87 87 90 91 93 96 95 95 94 93 93 93 93 93 92 94 94 90 88 92 94 93 93 96 99 99 98 93 89 90 94 97 99 102 104 106 109 109 106 107 108 105 106 112 113 111 114 117 118 121 121 121 122 123 124 124 125 127
114 110 108 108 108 106 102 99 99 100 99 99 98 92 87 87 86 87 91 93 91 90 90 90 86 88 93 95 95 91 86 89 95 95 95 98 98 96 95 94 94 94 95 95 96 97 97 93 92 96 98 95 95 98 100 100 100 95 89 91 97 101 103 107 109 109 110 110 110 112 110 105 106 111 113 114 117 120 121 122 123 123 124 125 126 127 128 128
118 116 115 115 113 110 107 104 102 102 100 99 95 89 87 87 85 87 94 95 92 91 92 92 91 93 98 98 95 89 86 93 100 98 98 100 100 97 97 96 95 96 97 97 98 99 99 98 98 101 103 100 98 101 102 103 103 96 89 93 101 102 104 107 109 108 110 113 113 112 110 107 109 113 115 118 121 123 124 125 126 126 127 128 128 129 129 128
121 120 119 119 119 117 114 109 107 105 101 97 95 94 94 92 89 92 98 95 91 92 94 95 96 99 101 98 93 90 92 99 103 101 101 102 100 99 98 97 98 99 99 99 100 100 100 101 101 103 106 104 103 104 106 106 103 94 90 95 100 100 103 107 107 107 110 112 111 110 109 110 113 116 118 121 122 124 126 127 128 130 130 130 130 130 130 130
Wind_Direction
231 229 230 229 229 230 232 234 235 235 236 239 242 246 248 248 249 252 255 259 261 263 266 271 277 283 289 295 299 303 307 311 315 318 321 323 324 323 323 325 328 332 335 336 336 337 337 337 335 334 333 333 331 328 326 323 319 315 311 310 310 311 311 306 301 299 299 301 304 304 307 312 311 308 309 312 314 314 315 318 321 324 326 327 327 329 330 330
233 231 230 230 229 230 232 234 235 236 237 238 240 244 247 248 248 250 253 255 258 261 264 268 274 280 286 291 295 299 303 307 311 315 319 321 322 322 321 321 324 329 333 334 335 336 336 335 335 333 333 333 331 328 328 327 323 318 314 310 310 312 311 309 306 304 301 301 303 304 306 309 310 309 308 310 311 311 314 317 320 323 325 325 327 328 330 330
235 233 231 230 230 231 232 233 235 236 237 238 239 242 245 247 248 249 251 253 256 259 262 266 270 276 281 287 291 295 298 303 307 311 316 318 320 319 318 318 320 325 330 332 333 334 335 335 334 333 333 334 333 331 332 332 331 327 321 315 313 316 315 312 312 311 307 303 302 302 303 306 308 308 306 307 307 310 313 316 319 322 323 325 327 328 329 329
238 235 233 231 231 231 232 233 234 236 237 238 239 241 243 246 248 249 250 252 254 257 261 264 268 272 277 283 287 291 294 299 303 308 312 316 317 318 317 316 317 322 327 329 330 332 334 334 334 333 334 335 333 332 333 334 336 337 332 325 323 324 322 318 317 316 314 307 302 301 301 304 307 307 305 304 306 310 314 315 318 321 323 325 326 327 327 327
241 238 234 233 231 231 232 233 234 235 237 238 239 241 243 245 247 249 250 252 253 256 258 262 266 270 274 278 283 287 291 296 300 305 309 313 316 317 316 315 315 319 324 326 327 330 331 331 330 329 331 333 331 329 331 333 335 338 339 335 333 333 330 326 323 321 319 313 307 302 300 302 306 307 305 304 307 311 314 315 318 320 322 324 325 325 325 325
245 241 237 234 232 231 231 233 234 235 236 237 239 240 242 244 246 248 250 252 253 255 257 260 264 267 271 275 279 283 289 293 298 303 307 311 314 316 316 315 315 317 321 324 325 326 327 327 325 325 326 330 330 328 328 331 332 335 337 338 336 335 333 330 327 324 322 318 312 305 302 302 305 307 306 306 309 313 315 316 318 321 323 324 324 325 325 326
247 244 240 236 234 232 232 232 233 234 235 237 238 239 241 243 245 246 249 252 253 255 257 260 263 266 269 273 277 281 286 291 296 301 305 308 312 314 315 314 314 316 318 321 322 323 324 324 322 321 323 326 328 327 326 328 329 331 333 335 336 335 334 332 331 329 327 324 319 312 307 305 307 308 307 309 312 315 316 317 319 322 323 324 325 327 328 328
248 245 242 239 236 234 233 232 233 234 235 236 237 239 240 242 244 246 247 250 253 256 259 260 263 266 268 271 275 280 285 289 294 298 303 306 310 313 313 313 313 314 316 318 320 322 323 323 321 320 321 321 323 324 324 324 325 327 328 330 332 333 333 333 334 334 332 329 324 318 313 309 309 310 310 312 314 315 315 316 318 321 323 324 326 328 328 327
249 247 244 242 239 236 234 233 233 234 235 236 237 238 240 241 243 245 246 249 252 256 259 261 263 266 269 271 274 279 284 288 293 297 301 305 309 311 311 311 312 313 314 316 318 320 322 321 319 318 319 318 319 320 320 321 320 320 321 322 325 327 328 329 331 331 331 328 324 319 315 312 311 311 312 312 312 313 313 313 315 319 322 324 325 326 325 325
250 248 246 244 242 239 237 235 235 234 235 236 237 238 239 241 243 245 246 248 251 255 259 262 263 266 270 273 275 279 284 288 292 296 300 304 307 309 308 309 311 312 313 314 316 318 320 319 317 316 317 317 316 316 315 315 315 315 314 315 318 320 322 323 324 323 323 323 321 318 313 312 311 310 310 309 308 310 310 311 313 317 320 321 323 323 324 323
252 250 247 245 244 242 240 238 237 236 236 236 237 238 239 240 242 245 247 248 251 255 259 262 263 266 269 273 277 281 284 288 292 295 299 303 305 306 306 307 310 311 312 313 315 316 318 319 315 314 316 316 314 312 311 311 312 311 309 308 309 312 315 316 317 317 318 318 317 314 308 308 310 309 308 306 305 307 308 309 312 314 316 319 320 321 322 322
255 253 250 247 246 245 243 241 239 238 238 237 238 239 239 240 242 244 247 249 251 254 259 262 264 266 269 273 278 282 285 288 291 295 298 301 304 304 305 307 309 310 310 311 314 316 317 318 314 313 314 315 313 310 309 309 309 308 307 306 305 307 309 310 311 312 312 312 312 311 304 305 310 308 306 304 303 305 306 307 310 312 314 316 317 319 321 322
257 256 254 251 248 247 246 244 243 241 240 239 239 240 240 241 242 244 246 249 252 254 259 263 266 268 269 272 277 282 285 288 291 294 297 300 302 304 305 306 307 309 309 310 313 315 316 316 313 311 313 314 313 311 309 308 307 305 304 305 306 306 306 306 307 307 307 307 308 309 303 302 308 309 306 304 303 305 306 308 311 312 314 314 315 317 319 321
258 258 256 254 251 250 249 248 246 244 243 242 241 241 241 242 242 244 246 249 252 255 259 263 267 270 271 273 276 281 285 288 290 293 296 299 301 303 305 305 306 308 308 310 313 313 314 314 312 311 313 313 313 313 311 308 305 303 302 303 304 305 306 306 307 307 308 308 307 310 306 303 307 309 308 308 308 308 309 311 312 314 315 315 315 316 317 320
258 258 258 257 255 252 251 251 249 248 246 245 244 243 243 243 243 244 246 249 252 256 259 263 267 271 273 275 277 281 285 287 290 292 295 297 299 301 302 303 305 306 307 310 312 312 312 313 310 310 312 313 313 312 310 309 307 307 306 305 305 305 305 306 308 308 309 309 308 310 309 306 308 310 311 312 311 311 311 312 313 314 314 314 315 316 317 320
260 259 259 258 257 255 253 252 252 251 249 248 247 246 245 245 245 245 247 249 252 257 261 264 268 272 275 277 279 282 284 287 290 292 294 296 296 298 299 301 302 303 305 308 311 311 310 311 309 309 311 312 312 311 309 310 311 310 309 308 308 307 308 309 309 309 309 309 308 310 310 308 308 309 311 312 311 310 310 312 312 312 313 315 316 317 318 319
261 260 259 259 258 257 256 254 253 253 252 251 250 249 248 247 247 247 248 249 252 257 262 266 270 273 276 279 281 282 285 287 289 291 293 294 294 295 298 299 300 300 303 306 309 309 308 308 308 308 309 311 311 310 310 312 314 314 311 310 310 310 310 311 311 310 310 308 306 308 309 306 305 306 308 308 307 306 307 309 310 311 313 315 316 317 318 319
261 261 260 259 259 259 258 256 255 254 254 253 253 251 250 250 249 249 249 251 253 257 262 266 270 273 276 279 281 283 285 287 289 290 291 292 292 294 296 297 297 297 299 304 306 307 306 307 307 306 307 309 310 310 310 311 313 315 313 312 312 313 313 312 313 312 311 310 306 307 307 304 303 304 306 305 302 303 305 307 309 312 314 315 316 316 317 317
262 262 261 260 260 259 259 258 257 256 255 255 254 253 251 251 251 251 252 253 254 257 262 266 270 273 276 279 281 283 284 286 288 289 290 291 292 293 294 294 294 295 297 302 305 305 305 306 306 305 306 308 309 310 309 308 310 312 312 309 309 312 313 312 313 313 314 312 309 309 308 306 306 308 308 305 303 303 305 307 309 311 313 314 314 315 315 315
262 262 262 262 261 261 260 260 259 258 257 256 255 254 253 252 251 252 254 255 256 258 262 266 269 272 275 278 281 283 285 286 288 289 290 291 291 291 292 292 293 293 296 301 304 304 304 305 304 304 305 307 307 308 308 307 307 309 309 307 305 306 308 310 312 314 314 313 311 311 311 310 310 311 310 307 305 305 304 306 308 309 310 312 313 314 314 315
264 262 262 262 262 261 261 261 261 260 259 258 256 254 253 253 253 253 254 256 257 260 263 266 269 272 275 277 280 282 285 287 289 289 289 290 290 290 290 291 291 292 296 300 303 303 302 303 303 302 303 304 305 305 306 305 305 306 306 305 304 303 305 307 310 312 313 313 313 312 312 312 312 312 309 307 306 305 305 307 307 308 310 312 313 313 314 314
267 265 263 261 260 261 261 261 261 261 260 259 257 255 253 253 253 253 255 257 259 261 264 267 270 273 275 277 280 282 285 288 289 287 288 289 289 288 289 291 291 292 297 301 302 301 301 302 302 300 301 302 302 302 303 303 302 303 303 303 303 303 305 307 310 313 313 314 315 315 318 318 315 313 310 308 308 306 307 308 308 309 311 312 313 313 313 314
269 267 265 262 260 260 260 261 261 261 260 260 258 256 254 253 253 254 255 257 260 263 266 269 270 273 275 277 280 282 285 287 287 286 287 288 287 287 289 291 291 293 297 301 302 301 300 302 301 299 300 300 300 299 300 301 300 300 301 302 303 305 306 306 310 314 314 314 313 313 319 323 321 316 311 310 308 308 310 310 309 311 312 312 312 312 313 313
270 268 266 264 262 261 260 260 260 260 260 260 259 257 256 254 254 255 256 257 260 264 268 271 273 274 276 278 280 282 284 285 285 285 286 286 286 287 289 290 291 293 297 301 301 300 300 301 300 299 299 298 298 298 297 298 299 299 300 301 303 306 306 305 307 310 312 313 311 308 312 323 324 318 314 312 310 310 311 310 310 310 311 312 311 312 313 313
270 269 268 266 264 262 261 260 260 260 259 260 259 258 256 255 255 255 257 258 261 264 267 272 275 277 278 280 281 283 284 284 285 286 286 286 287 287 289 290 291 293 297 299 299 298 298 299 298 297 298 297 297 297 297 297 298 298 299 299 302 304 306 305 305 308 310 312 313 309 307 317 321 319 315 312 310 310 309 308 308 309 310 311 311 312 313 313
269 269 268 267 265 263 262 261 260 260 259 259 258 258 257 256 256 256 258 260 263 265 267 272 275 276 279 281 282 283 284 284 285 286 286 287 287 288 289 290 291 294 296 297 297 296 296 298 297 296 297 296 296 297 296 297 297 297 298 299 300 302 304 305 305 307 308 311 314 310 307 310 316 318 314 310 310 310 307 306 307 308 310 310 311 312 312 312
267 267 268 268 267 265 263 262 261 260 259 259 258 257 256 256 257 257 259 262 264 266 268 272 273 275 278 279 281 283 283 284 285 285 286 287 287 288 288 288 290 293 295 295 295 294 294 295 295 295 295 295 296 296 296 296 297 298 298 299 300 301 303 304 305 307 306 310 312 309 308 310 315 317 312 310 312 311 307 306 307 308 310 311 311 312 312 312
266 266 266 267 267 266 264 262 262 261 260 259 258 257 257 257 258 259 261 263 266 267 269 271 273 275 277 278 280 281 282 283 284 285 286 287 287 287 287 287 289 292 293 294 293 292 292 293 293 293 293 294 295 295 296 296 297 298 298 299 301 302 303 304 306 307 306 308 310 308 309 311 316 317 310 309 312 310 307 307 308 310 311 311 312 312 312 312
265 265 265 265 266 266 265 264 263 263 262 260 260 259 259 259 260 261 263 266 268 268 269 271 273 275 276 278 279 281 282 283 284 285 285 286 286 286 286 287 290 291 291 292 292 291 291 291 291 291 292 293 294 294 295 296 297 298 298 299 300 301 302 303 305 306 306 309 308 307 309 310 314 316 310 310 311 308 307 307 309 311 311 311 311 312 312 313
264 263 264 264 265 265 265 265 265 264 264 263 262 261 261 261 262 264 266 269 269 268 269 270 272 274 275 277 279 281 282 282 283 284 284 285 286 285 286 287 288 289 290 290 290 290 290 290 290 291 291 292 293 294 295 296 297 297 297 297 297 299 300 301 303 304 307 311 309 308 310 309 312 313 309 310 310 307 306 307 309 311 311 311 312 312 313 313
263 262 262 263 264 265 264 264 264 264 264 264 263 262 262 263 264 266 269 269 268 267 268 269 270 273 275 276 278 280 280 281 282 282 283 284 284 284 285 286 287 287 288 289 288 288 289 289 289 290 291 291 292 293 294 295 296 295 295 295 296 297 297 299 301 302 306 310 309 309 309 309 311 311 308 309 308 306 306 307 308 310 310 311 312 313 313 312
262 262 262 262 263 263 264 264 263 263 263 264 263 263 263 263 265 268 269 268 266 266 267 268 269 271 272 273 276 277 278 279 280 280 281 281 282 283 284 285 285 285 285 286 286 287 288 289 290 289 290 291 291 292 293 294 295 295 295 295 296 296 295 297 298 300 305 308 308 308 307 308 310 309 308 308 306 306 307 308 308 309 310 312 313 313 313 312
261 261 261 261 262 262 263 263 262 262 262 262 262 262 262 263 265 268 268 266 266 265 265 267 268 268 268 270 272 274 275 276 277 278 279 279 280 282 283 284 284 284 284 283 284 285 287 289 290 291 292 292 292 293 293 294 295 295 295 295 296 296 296 298 298 299 303 305 305 306 306 307 309 308 308 307 306 307 308 309 309 309 311 312 312 313 313 313
261 261 261 262 262 262 263 262 262 262 262 262 262 262 262 263 265 266 266 267 267 266 265 266 266 266 266 268 271 272 272 273 274 275 276 277 278 279 281 282 283 284 284 284 284 284 285 288 290 292 293 293 293 293 293 294 294 294 296 296 296 295 296 297 298 300 302 302 304 304 305 308 308 309 309 306 306 308 308 308 309 310 312 312 312 313 313 314
262 262 262 262 263 263 263 262 262 262 262 262 261 261 262 264 265 265 266 268 269 268 267 266 266 266 267 268 269 271 271 272 272 273 275 276 277 279 281 282 283 284 285 286 286 286 286 287 289 290 291 291 291 291 293 293 293 294 295 295 294 294 295 297 299 300 301 302 303 303 305 307 307 309 309 306 307 307 307 307 309 311 312 312 312 313 313 314
262 262 263 264 264 264 264 264 264 263 263 263 262 263 264 264 264 265 266 267 268 268 267 267 267 267 267 267 269 270 271 272 273 274 275 276 278 280 281 282 283 285 286 287 287 287 286 286 287 288 289 290 290 291 292 293 293 294 294 293 294 294 295 297 299 300 300 301 302 302 304 306 306 308 308 307 306 306 306 308 310 312 312 312 313 313 314 314
263 262 262 264 265 265 265 265 265 265 265 264 264 265 266 265 265 267 267 266 267 268 268 268 268 268 268 268 270 271 272 273 275 276 277 278 280 281 282 282 283 284 285 286 287 287 286 286 286 287 288 289 290 291 292 293 293 294 293 294 294 295 296 298 299 300 300 300 301 302 305 306 306 308 309 306 304 305 307 308 310 311 311 312 313 313 314 314
266 265 265 264 265 265 265 265 265 265 265 266 267 268 267 267 268 268 269 268 268 269 269 270 270 270 270 271 271 272 273 274 275 276 277 279 280 281 280 280 281 282 283 284 285 286 286 285 285 286 288 290 291 292 292 293 294 294 294 294 295 296 298 298 298 299 299 300 301 303 305 306 307 311 310 304 304 306 308 308 310 311 312 313 313 313 314 314
267 268 268 267 266 266 265 265 265 265 266 267 268 268 267 267 268 269 270 270 271 271 271 272 272 272 273 273 273 273 274 274 275 276 277 279 280 280 279 280 280 281 282 283 284 284 285 285 285 286 288 290 291 292 293 294 294 294 294 295 296 297 297 297 298 299 300 300 302 304 304 306 311 313 308 304 306 308 307 307 310 312 313 314 314 314 315 315
265 266 268 269 269 268 267 266 266 267 268 269 268 268 267 267 267 268 270 271 271 272 272 272 273 274 274 274 274 274 274 274 275 276 278 279 280 280 279 280 280 281 282 282 283 284 284 285 285 286 288 289 291 292 294 295 295 294 295 296 297 296 296 297 297 299 300 300 303 304 303 308 315 311 305 306 310 309 307 308 311 313 314 314 314 315 316 316
264 264 265 267 268 269 269 270 270 271 271 271 271 271 269 267 266 267 269 270 271 272 272 272 272 273 273 274 274 274 274 275 276 277 278 279 280 280 279 280 281 282 282 283 284 285 285 286 287 288 289 290 291 292 293 294 294 294 295 297 296 296 296 296 297 299 299 301 304 303 302 312 316 308 306 311 312 309 308 311 313 313 313 314 315 316 316 317
265 265 264 263 264 267 269 271 273 274 273 274 274 272 269 268 268 268 269 270 271 272 272 272 272 272 273 274 274 274 275 276 277 278 279 279 279 280 280 281 282 283 284 285 286 287 288 288 289 289 290 290 291 292 293 293 293 293 295 296 295 295 296 296 297 299 299 303 304 300 303 313 312 306 309 313 310 307 308 312 314 313 314 315 316 317 317 317
267 267 265 263 264 265 267 269 272 272 272 272 271 270 271 271 271 272 272 272 272 272 272 272 272 273 273 274 274 275 276 277 278 278 279 278 279 280 282 283 283 284 285 286 288 288 289 290 290 290 290 291 292 292 293 292 292 293 294 295 294 295 295 296 297 298 300 303 301 299 306 312 308 307 312 312 308 307 309 313 314 313 314 315 316 317 317 317
267 266 266 267 267 267 268 270 270 269 268 267 267 268 270 271 272 273 274 273 273 273 273 274 275 275 274 275 275 276 277 278 278 278 277 278 279 281 282 282 283 284 285 287 288 288 289 289 290 290 290 290 291 292 291 291 291 292 293 294 294 295 294 295 296 297 299 300 298 302 309 310 307 311 313 309 307 308 311 314 313 312 314 315 316 317 317 317
265 265 267 268 269 270 270 271 270 268 267 266 265 264 265 266 268 269 270 271 273 274 275 275 275 274 274 275 276 276 276 276 276 276 277 279 280 280 281 282 282 284 285 286 287 287 287 288 290 291 290 290 291 291 290 289 290 291 292 294 294 294 294 296 296 297 299 298 300 306 310 307 310 313 311 307 307 309 313 313 312 313 314 315 316 316 316 317
263 264 266 269 270 271 271 271 270 269 269 267 265 264 264 264 265 266 267 268 270 272 273 272 272 273 274 275 275 274 274 275 276 277 279 280 280 280 280 281 282 283 284 285 285 285 286 287 289 289 289 291 292 291 290 290 291 292 294 295 296 296 297 298 297 298 299 299 303 308 307 306 312 313 308 307 309 311 314 313 312 313 314 316 316 316 316 317
263 265 266 268 268 269 269 270 271 271 270 268 266 265 265 266 267 268 269 269 269 269 269 269 271 273 274 274 274 274 275 276 277 280 281 281 280 280 280 281 282 283 283 283 284 284 285 286 288 288 288 289 290 290 290 290 291 293 295 296 298 299 300 298 297 299 301 301 304 308 305 307 313 310 306 307 310 312 313 312 312 313 314 315 316 315 316 316
263 264 265 265 266 268 269 270 271 270 268 267 267 267 267 268 270 271 271 270 269 269 269 269 269 270 271 272 273 273 274 276 279 280 281 280 280 280 280 281 282 282 282 283 284 284 285 286 287 287 287 288 289 289 290 290 292 293 296 298 300 300 298 297 298 300 301 301 304 306 305 309 312 308 305 308 311 312 312 311 312 312 313 314 315 315 316 316
264 264 265 265 267 267 267 266 266 267 268 269 270 270 271 272 272 273 272 272 271 271 270 269 269 269 270 271 271 272 274 276 278 277 277 278 278 279 279 280 281 282 283 283 284 284 285 286 287 286 286 288 289 289 289 291 292 293 297 301 300 298 297 298 300 301 300 301 303 304 305 309 309 306 306 309 310 310 310 311 311 312 313 313 314 315 315 315
265 265 265 265 265 265 266 266 266 267 268 269 270 272 274 274 273 273 272 271 271 271 271 271 272 272 271 270 270 272 274 276 276 275 275 276 277 278 279 280 280 281 282 283 284 285 285 286 287 286 287 288 289 288 289 291 291 294 299 300 297 296 299 300 300 300 301 302 302 303 305 308 306 305 307 309 308 308 309 310 311 312 312 313 313 314 315 315
265 266 266 266 266 266 266 266 266 266 267 268 270 272 273 272 273 273 271 270 272 273 273 272 271 270 270 270 272 275 276 275 273 273 274 274 276 278 279 280 281 281 282 283 284 285 286 286 287 287 288 288 288 288 289 289 291 296 300 297 296 298 300 299 300 301 302 302 302 303 305 306 305 305 307 307 307 307 308 309 310 311 311 312 313 314 315 316
264 265 266 267 267 267 266 265 265 265 266 269 271 271 269 270 271 271 271 271 272 273 273 272 270 269 270 273 275 277 274 272 272 272 273 274 276 278 279 280 280 281 282 283 284 285 286 287 288 288 288 288 288 288 288 289 292 297 298 296 296 298 298 298 300 302 302 302 303 304 305 306 306 306 306 306 306 307 307 308 309 310 311 312 313 314 316 317
Height
10859 10859 10860 10860 10860 10861 10861 10862 10863 10863 10864 10864 10864 10864 10863 10863 10863 10862 10862 10861 10861 10861 10861 10860 10859 10858 10857 10857 10855 10854 10853 10852 10851 10850 10848 10846 10844 10842 10840 10839 10837 10836 10835 10833 10831 10829 10827 10826 10824 10822 10820 10818 10816 10813 10810 10808 10806 10803 10801 10801 10801 10800 10799 10798 10798 10798 10798 10797 10795 10792 10791 10792 10792 10789 10786 10784 10782 10780 10777 10775 10774 10774 10773 10771 10770 10769 10766 10764
10856 10857 10857 10857 10858 10858 10859 10859 10860 10860 10861 10861 10861 10861 10861 10860 10860 10860 10860 10859 10859 10859 10858 10858 10858 10856 10856 10855 10854 10853 10852 10851 10850 10849 10847 10845 10843 10841 10839 10837 10835 10834 10832 10831 10829 10827 10825 10823 10821 10820 10818 10817 10815 10811 10809 10806 10804 10801 10799 10798 10797 10797 10796 10794 10794 10795 10795 10795 10794 10790 10788 10788 10789 10788 10784 10782 10780 10778 10776 10774 10772 10771 10770 10768 10767 10765 10763 10761
10854 10854 10854 10854 10855 10855 10856 10856 10857 10857 10858 10858 10858 10858 10858 10858 10858 10857 10857 10857 10856 10856 10856 10856 10856 10855 10854 10853 10852 10851 10850 10849 10848 10847 10846 10844 10842 10840 10838 10835 10834 10832 10831 10829 10827 10825 10823 10820 10818 10816 10814 10813 10811 10809 10806 10804 10802 10800 10798 10796 10795 10795 10793 10792 10791 10792 10792 10792 10791 10789 10786 10785 10786 10786 10784 10781 10778 10776 10774 10773 10771 10770 10768 10766 10764 10762 10760 10758
10851 10851 10851 10851 10851 10852 10852 10853 10854 10854 10854 10855 10855 10855 10855 10855 10855 10854 10854 10854 10854 10854 10853 10853 10853 10852 10851 10851 10850 10849 10848 10847 10846 10845 10844 10842 10840 10838 10836 10834 10832 10830 10829 10827 10825 10824 10822 10819 10816 10814 10811 10810 10808 10805 10803 10801 10800 10798 10796 10794 10793 10793 10792 10790 10789 10789 10789 10789 10788 10787 10784 10783 10783 10783 10782 10779 10776 10774 10772 10770 10769 10767 10766 10764 10762 10760 10758 10756
10848 10848 10848 10848 10848 10848 10849 10849 10850 10851 10851 10851 10852 10852 10852 10852 10852 10851 10851 10851 10851 10851 10851 10850 10850 10850 10849 10848 10848 10847 10846 10845 10844 10843 10842 10840 10838 10836 10834 10832 10830 10828 10827 10825 10823 10822 10821 10819 10817 10814 10811 10808 10806 10803 10801 10798 10797 10796 10795 10793 10792 10791 10790 10789 10787 10786 10786 10785 10784 10784 10781 10780 10780 10780 10778 10776 10774 10772 10770 10768 10766 10765 10763 10762 10760 10758 10756 10754
10845 10845 10845 10844 10844 10845 10845 10846 10846 10847 10847 10848 10848 10848 10848 10848 10848 10848 10848 10848 10848 10848 10848 10848 10847 10847 10847 10846 10845 10845 10844 10843 10842 10841 10840 10838 10836 10834 10832 10830 10828 10826 10825 10823 10822 10820 10819 10818 10816 10814 10810 10808 10805 10802 10799 10796 10794 10793 10792 10791 10790 10789 10788 10787 10786 10785 10784 10783 10781 10780 10779 10777 10776 10776 10774 10772 10771 10770 10767 10765 10763 10762 10760 10759 10757 10755 10753 10750
10841 10841 10841 10841 10841 10841 10841 10842 10843 10843 10844 10844 10844 10845 10845 10845 10845 10845 10845 10845 10845 10845 10845 10845 10844 10844 10844 10843 10843 10842 10841 10840 10839 10838 10837 10835 10834 10832 10829 10828 10826 10824 10822 10821 10819 10817 10816 10815 10814 10812 10809 10806 10804 10801 10797 10795 10792 10790 10789 10788 10787 10786 10785 10783 10783 10783 10782 10780 10779 10778 10776 10774 10773 10772 10770 10768 10767 10765 10763 10761 10760 10759 10757 10755 10754 10752 10749 10747
10837 10837 10837 10837 10837 10837 10838 10838 10839 10839 10840 10840 10841 10841 10841 10841 10841 10842 10842 10842 10842 10842 10841 10841 10841 10841 10841 10841 10840 10839 10839 10838 10837 10836 10834 10833 10831 10829 10827 10825 10823 10821 10819 10818 10816 10814 10812 10811 10810 10809 10807 10804 10802 10800 10797 10794 10791 10789 10787 10786 10785 10784 10782 10781 10780 10780 10779 10778 10777 10775 10774 10771 10769 10768 10765 10763 10762 10760 10759 10757 10756 10755 10753 10751 10749 10747 10745 10743
10832 10833 10833 10834 10834 10834 10834 10834 10835 10835 10836 10836 10837 10837 10837 10838 10838 10838 10839 10839 10839 10839 10838 10838 10838 10838 10838 10838 10837 10837 10836 10835 10834 10833 10832 10830 10829 10827 10824 10823 10821 10819 10817 10815 10813 10811 10809 10807 10806 10805 10804 10802 10800 10798 10796 10793 10790 10788 10786 10784 10783 10782 10781 10779 10778 10777 10777 10776 10775 10773 10771 10769 10766 10764 10761 10758 10757 10756 10755 10753 10752 10751 10749 10747 10745 10743 10741 10739
10829 10829 10829 10830 10830 10830 10830 10830 10831 10831 10832 10832 10832 10833 10834 10834 10834 10835 10835 10836 10836 10835 10835 10835 10835 10835 10835 10834 10834 10834 10833 10832 10831 10830 10829 10827 10826 10824 10822 10820 10818 10817 10814 10812 10810 10808 10807 10804 10802 10801 10801 10799 10797 10795 10794 10792 10789 10787 10785 10782 10781 10780 10779 10777 10776 10775 10774 10773 10772 10771 10768 10766 10763 10761 10758 10755 10752 10751 10750 10748 10747 10746 10744 10742 10740 10737 10736 10734
10825 10825 10825 10826 10826 10827 10827 10827 10827 10827 10828 10828 10828 10829 10830 10831 10831 10831 10832 10832 10833 10833 10832 10832 10832 10832 10832 10831 10831 10830 10829 10829 10828 10827 10825 10824 10823 10821 10819 10817 10815 10814 10812 10809 10807 10805 10804 10802 10799 10797 10796 10795 10794 10793 10791 10789 10787 10785 10783 10780 10779 10778 10776 10775 10774 10773 10772 10771 10770 10768 10765 10763 10762 10759 10756 10752 10748 10746 10745 10743 10741 10740 10738 10736 10734 10732 10730 10728
10822 10822 10822 10822 10822 10823 10823 10823 10823 10823 10824 10824 10825 10825 10826 10827 10828 10828 10828 10829 10830 10830 10829 10829 10829 10829 10829 10828 10828 10827 10826 10826 10824 10823 10822 10821 10819 10817 10815 10813 10812 10810 10808 10806 10804 10802 10800 10799 10796 10794 10793 10791 10790 10789 10788 10786 10784 10782 10780 10778 10776 10775 10774 10772 10772 10771 10770 10769 10768 10767 10762 10759 10760 10757 10754 10750 10746 10743 10741 10739 10737 10735 10733 10731 10729 10726 10724 10722
10819 10819 10819 10819 10819 10819 10819 10819 10819 10820 10820 10820 10821 10821 10822 10823 10824 10825 10825 10825 10826 10827 10826 10826 10826 10826 10826 10825 10825 10824 10823 10822 10821 10820 10819 10817 10816 10814 10812 10810 10808 10807 10805 10803 10801 10799 10798 10796 10794 10791 10789 10788 10786 10785 10784 10783 10781 10779 10777 10775 10773 10771 10770 10769 10768 10767 10766 10765 10764 10764 10759 10754 10755 10754 10751 10748 10744 10741 10738 10735 10733 10731 10728 10726 10723 10721 10719 10717
10816 10816 10816 10816 10816 10816 10816 10816 10816 10816 10816 10816 10817 10818 10818 10820 10821 10822 10822 10822 10823 10823 10823 10823 10823 10823 10822 10822 10822 10821 10820 10819 10818 10817 10816 10814 10813 10810 10808 10806 10804 10802 10801 10799 10798 10796 10795 10793 10791 10789 10787 10785 10783 10781 10780 10779 10778 10776 10774 10773 10771 10768 10767 10765 10764 10762 10760 10759 10757 10758 10755 10749 10749 10748 10746 10743 10739 10737 10734 10731 10729 10726 10724 10721 10719 10717 10715 10712
10812 10812 10812 10813 10813 10813 10812 10812 10812 10812 10812 10812 10813 10814 10815 10816 10817 10818 10819 10819 10820 10820 10820 10820 10820 10819 10819 10819 10818 10818 10817 10815 10814 10813 10812 10811 10809 10807 10805 10802 10800 10798 10796 10795 10794 10792 10791 10790 10788 10786 10784 10782 10780 10778 10776 10775 10773 10772 10769 10768 10768 10766 10764 10762 10761 10758 10755 10753 10751 10752 10750 10744 10742 10741 10739 10736 10733 10730 10728 10726 10724 10722 10719 10717 10715 10713 10710 10708
10808 10808 10809 10809 10809 10809 10809 10809 10809 10809 10809 10809 10810 10811 10811 10812 10814 10815 10816 10816 10816 10817 10817 10817 10816 10816 10815 10814 10815 10814 10813 10811 10810 10809 10808 10807 10806 10804 10801 10799 10797 10794 10792 10791 10789 10788 10786 10786 10784 10783 10781 10779 10777 10775 10772 10770 10769 10768 10766 10764 10763 10762 10761 10759 10758 10756 10753 10750 10747 10747 10746 10742 10738 10737 10734 10731 10727 10725 10723 10721 10720 10717 10714 10712 10710 10708 10705 10703
10803 10804 10804 10805 10805 10805 10805 10806 10805 10805 10805 10805 10806 10808 10809 10809 10811 10812 10812 10813 10814 10814 10814 10813 10813 10812 10810 10810 10810 10809 10809 10807 10806 10806 10804 10803 10802 10800 10798 10795 10793 10791 10789 10787 10785 10784 10783 10782 10781 10779 10778 10776 10775 10772 10769 10767 10764 10763 10762 10760 10759 10758 10757 10756 10755 10754 10752 10749 10746 10745 10744 10740 10737 10735 10733 10730 10725 10722 10720 10718 10715 10712 10709 10706 10704 10702 10699 10696
10799 10799 10799 10800 10801 10801 10801 10802 10801 10801 10801 10801 10802 10804 10805 10806 10807 10808 10808 10809 10810 10811 10810 10809 10809 10808 10806 10806 10805 10805 10804 10803 10802 10802 10800 10799 10797 10795 10793 10791 10790 10788 10786 10784 10782 10779 10778 10778 10777 10775 10775 10773 10771 10769 10767 10765 10762 10760 10758 10756 10755 10753 10752 10753 10752 10750 10750 10748 10745 10745 10743 10738 10736 10734 10732 10729 10724 10721 10718 10714 10711 10707 10704 10701 10698 10696 10693 10690
10794 10794 10795 10795 10796 10797 10797 10797 10797 10797 10797 10797 10798 10800 10801 10802 10802 10804 10804 10805 10806 10807 10807 10806 10805 10805 10802 10801 10800 10800 10799 10798 10797 10797 10796 10794 10793 10791 10789 10787 10786 10784 10782 10780 10778 10775 10773 10773 10772 10771 10770 10769 10767 10765 10764 10762 10760 10758 10756 10754 10752 10751 10748 10748 10749 10747 10746 10744 10741 10741 10740 10735 10732 10731 10729 10725 10720 10717 10713 10710 10707 10704 10700 10697 10694 10691 10688 10685
10789 10789 10790 10791 10792 10792 10792 10792 10793 10793 10792 10793 10794 10795 10796 10797 10798 10800 10800 10801 10802 10803 10803 10802 10802 10801 10799 10796 10795 10794 10793 10793 10793 10791 10790 10789 10788 10787 10784 10782 10781 10780 10778 10776 10774 10771 10769 10769 10767 10765 10765 10764 10762 10761 10759 10758 10756 10755 10753 10751 10750 10749 10746 10744 10745 10743 10742 10741 10738 10737 10735 10731 10727 10725 10723 10719 10715 10712 10709 10706 10703 10699 10696 10693 10689 10686 10682 10679
10785 10785 10785 10786 10787 10788 10788 10788 10788 10788 10788 10788 10789 10791 10791 10792 10794 10796 10796 10796 10798 10799 10798 10798 10798 10796 10795 10793 10791 10790 10788 10788 10788 10786 10785 10784 10783 10782 10780 10778 10776 10775 10774 10772 10770 10767 10765 10765 10763 10761 10760 10759 10757 10756 10755 10753 10751 10750 10749 10747 10745 10745 10744 10741 10740 10740 10738 10737 10735 10733 10732 10727 10722 10720 10716 10713 10711 10708 10705 10702 10698 10694 10691 10688 10684 10680 10675 10672
10780 10780 10781 10781 10782 10782 10783 10783 10783 10784 10783 10783 10784 10785 10786 10788 10789 10791 10793 10792 10793 10794 10794 10793 10793 10791 10790 10789 10787 10786 10784 10783 10783 10781 10780 10780 10778 10777 10775 10773 10771 10770 10768 10767 10765 10762 10760 10760 10758 10756 10756 10754 10752 10751 10750 10748 10746 10745 10744 10743 10741 10740 10740 10737 10735 10735 10733 10732 10731 10729 10729 10725 10718 10713 10709 10708 10705 10702 10700 10697 10692 10688 10686 10681 10677 10672 10668 10664
10776 10776 10776 10776 10776 10777 10777 10778 10778 10779 10779 10779 10779 10780 10781 10783 10785 10787 10788 10789 10789 10788 10788 10788 10788 10787 10785 10785 10783 10782 10781 10779 10778 10776 10775 10775 10772 10771 10771 10768 10766 10765 10763 10761 10759 10757 10755 10755 10753 10751 10750 10749 10747 10746 10745 10743 10740 10738 10738 10738 10735 10734 10735 10734 10732 10730 10728 10726 10725 10725 10726 10723 10715 10706 10701 10700 10698 10695 10693 10689 10684 10681 10678 10674 10669 10664 10661 10657
10771 10771 10771 10771 10772 10772 10772 10772 10773 10774 10774 10774 10774 10775 10776 10778 10780 10782 10783 10786 10786 10783 10782 10782 10782 10781 10780 10781 10779 10778 10777 10775 10773 10771 10770 10769 10767 10766 10765 10764 10762 10760 10758 10756 10754 10751 10749 10749 10749 10746 10745 10743 10741 10741 10740 10738 10735 10732 10731 10731 10730 10728 10727 10728 10728 10727 10724 10721 10717 10717 10723 10723 10714 10702 10694 10690 10688 10687 10685 10680 10676 10673 10671 10667 10662 10657 10654 10649
10766 10767 10767 10766 10767 10767 10767 10768 10768 10768 10770 10770 10770 10770 10772 10773 10776 10778 10778 10781 10783 10779 10777 10778 10776 10774 10774 10774 10773 10773 10772 10770 10768 10767 10765 10763 10762 10761 10759 10758 10757 10755 10754 10752 10749 10746 10743 10744 10743 10741 10740 10737 10736 10735 10733 10733 10731 10727 10724 10723 10723 10722 10721 10720 10721 10721 10720 10717 10709 10704 10714 10723 10714 10700 10689 10684 10683 10681 10678 10673 10670 10668 10665 10661 10656 10651 10647 10642
10761 10762 10762 10761 10762 10762 10763 10764 10762 10763 10765 10765 10765 10765 10767 10769 10771 10773 10773 10776 10780 10775 10772 10774 10771 10768 10767 10766 10766 10767 10766 10764 10762 10761 10759 10757 10756 10755 10753 10752 10751 10751 10749 10747 10745 10741 10738 10739 10737 10736 10734 10731 10730 10728 10727 10727 10725 10723 10718 10717 10716 10715 10715 10713 10713 10714 10713 10714 10706 10692 10700 10715 10713 10699 10685 10679 10679 10676 10671 10667 10665 10663 10660 10655 10649 10645 10640 10635
10757 10758 10757 10756 10756 10757 10759 10758 10757 10759 10760 10760 10761 10760 10762 10764 10766 10768 10768 10772 10777 10772 10767 10768 10765 10763 10762 10760 10760 10761 10760 10758 10757 10755 10753 10752 10750 10749 10747 10746 10746 10746 10744 10743 10742 10736 10734 10734 10731 10730 10729 10726 10725 10722 10720 10720 10719 10717 10713 10711 10710 10708 10707 10706 10706 10706 10705 10709 10704 10686 10687 10702 10707 10697 10679 10673 10674 10669 10663 10660 10659 10657 10653 10648 10642 10638 10633 10627
10751 10752 10752 10751 10751 10752 10753 10753 10752 10753 10754 10755 10755 10755 10758 10760 10761 10763 10764 10768 10773 10770 10764 10761 10758 10757 10756 10755 10756 10755 10754 10753 10751 10750 10748 10746 10745 10743 10741 10740 10739 10740 10738 10737 10736 10731 10729 10729 10725 10724 10723 10720 10719 10716 10714 10713 10711 10710 10707 10704 10703 10701 10700 10698 10699 10698 10697 10704 10699 10684 10679 10687 10698 10691 10672 10667 10668 10661 10655 10652 10651 10650 10645 10641 10635 10630 10626 10620
10746 10747 10747 10746 10746 10747 10747 10748 10748 10748 10748 10749 10749 10751 10753 10754 10757 10758 10760 10765 10769 10766 10759 10755 10753 10751 10750 10750 10751 10749 10748 10746 10745 10744 10742 10741 10739 10736 10734 10733 10733 10733 10732 10731 10730 10726 10724 10723 10720 10718 10717 10715 10713 10711 10708 10705 10704 10702 10699 10697 10695 10693 10692 10690 10691 10689 10690 10697 10692 10682 10676 10677 10688 10685 10665 10661 10660 10652 10648 10645 10643 10641 10637 10633 10628 10623 10619 10613
10740 10741 10740 10741 10741 10741 10741 10742 10743 10742 10742 10743 10744 10746 10747 10750 10753 10753 10757 10762 10761 10759 10755 10750 10747 10746 10744 10744 10744 10744 10742 10740 10739 10738 10736 10735 10733 10730 10727 10726 10726 10726 10725 10724 10723 10721 10718 10716 10714 10712 10710 10709 10707 10704 10701 10698 10697 10694 10692 10689 10687 10686 10683 10682 10683 10680 10682 10689 10684 10677 10673 10669 10677 10678 10662 10656 10652 10644 10641 10637 10635 10633 10628 10624 10621 10616 10611 10605
10733 10733 10734 10735 10735 10734 10735 10736 10736 10736 10736 10736 10738 10740 10742 10745 10747 10750 10755 10756 10752 10751 10749 10744 10743 10741 10739 10739 10738 10737 10736 10734 10733 10731 10731 10730 10728 10725 10721 10718 10718 10719 10719 10716 10714 10715 10713 10710 10708 10706 10703 10702 10700 10697 10694 10692 10689 10686 10684 10681 10680 10678 10674 10675 10675 10672 10674 10679 10676 10672 10668 10664 10668 10667 10658 10652 10646 10639 10635 10632 10629 10625 10621 10617 10613 10608 10602 10597
10726 10727 10728 10728 10728 10728 10728 10729 10729 10729 10730 10730 10731 10734 10736 10739 10743 10748 10749 10745 10742 10744 10741 10737 10738 10736 10734 10735 10733 10731 10730 10728 10726 10725 10724 10723 10722 10719 10714 10710 10709 10710 10713 10709 10706 10707 10707 10704 10702 10700 10698 10695 10693 10690 10687 10685 10681 10678 10675 10671 10670 10668 10665 10667 10667 10665 10668 10670 10668 10665 10662 10662 10662 10657 10651 10646 10638 10633 10630 10625 10621 10617 10613 10610 10604 10599 10593 10587
10719 10721 10721 10722 10722 10721 10720 10721 10722 10722 10722 10723 10725 10728 10730 10735 10742 10744 10740 10734 10732 10735 10733 10731 10732 10730 10729 10730 10727 10725 10724 10721 10719 10718 10717 10717 10716 10713 10708 10703 10700 10699 10703 10703 10701 10700 10701 10700 10695 10692 10692 10688 10685 10683 10679 10677 10672 10669 10666 10662 10659 10654 10651 10656 10657 10656 10661 10664 10663 10659 10654 10656 10656 10650 10645 10638 10630 10626 10622 10617 10613 10608 10604 10600 10595 10589 10583 10577
10713 10714 10715 10716 10715 10713 10712 10712 10713 10714 10714 10716 10718 10721 10725 10733 10738 10735 10729 10725 10722 10725 10726 10724 10724 10724 10724 10724 10721 10719 10717 10715 10714 10712 10710 10711 10710 10707 10703 10696 10692 10690 10690 10691 10693 10694 10697 10698 10692 10687 10686 10681 10678 10675 10672 10669 10664 10661 10659 10654 10650 10643 10638 10642 10645 10645 10648 10654 10658 10653 10647 10647 10647 10642 10637 10628 10621 10616 10612 10608 10604 10600 10596 10590 10584 10579 10572 10567
10706 10707 10708 10709 10708 10705 10703 10703 10706 10706 10707 10709 10710 10716 10724 10729 10729 10724 10721 10718 10714 10715 10716 10715 10717 10718 10718 10718 10715 10712 10709 10707 10708 10706 10704 10704 10703 10702 10698 10690 10685 10682 10680 10679 10681 10685 10690 10693 10688 10682 10680 10676 10672 10669 10666 10662 10656 10655 10653 10646 10642 10638 10631 10630 10633 10634 10632 10638 10649 10648 10643 10642 10638 10634 10629 10618 10612 10606 10601 10599 10595 10591 10587 10580 10574 10569 10562 10556
10698 10699 10700 10702 10701 10696 10693 10696 10698 10697 10699 10701 10704 10714 10722 10722 10718 10714 10713 10710 10705 10704 10706 10707 10710 10710 10710 10710 10707 10705 10701 10699 10700 10698 10697 10697 10697 10698 10692 10684 10679 10675 10671 10669 10669 10673 10680 10685 10682 10677 10674 10671 10666 10664 10660 10653 10648 10648 10645 10638 10633 10630 10625 10620 10622 10624 10618 10621 10635 10638 10636 10636 10631 10629 10623 10610 10602 10598 10592 10590 10587 10583 10578 10572 10566 10559 10553 10547
10690 10691 10693 10696 10692 10685 10684 10688 10688 10689 10691 10692 10700 10712 10716 10713 10710 10706 10703 10700 10697 10696 10697 10700 10702 10701 10700 10701 10701 10697 10692 10692 10692 10690 10689 10690 10692 10693 10685 10676 10673 10669 10664 10660 10660 10663 10667 10674 10676 10670 10667 10664 10660 10657 10652 10646 10643 10639 10635 10630 10625 10621 10618 10612 10609 10613 10609 10606 10618 10626 10627 10626 10622 10622 10618 10602 10592 10589 10585 10581 10579 10575 10569 10563 10557 10549 10543 10537
10681 10683 10687 10689 10682 10674 10675 10677 10678 10680 10682 10686 10698 10707 10707 10705 10703 10697 10691 10690 10690 10690 10690 10692 10693 10691 10692 10693 10692 10688 10684 10684 10684 10682 10682 10682 10685 10686 10677 10669 10666 10662 10657 10652 10653 10654 10655 10662 10668 10664 10659 10657 10654 10649 10643 10640 10636 10630 10626 10622 10617 10613 10610 10604 10598 10599 10598 10593 10599 10610 10617 10616 10612 10611 10605 10591 10583 10580 10574 10569 10568 10566 10560 10553 10547 10540 10533 10527
10672 10675 10681 10681 10670 10662 10664 10666 10668 10670 10674 10684 10694 10697 10696 10697 10695 10688 10682 10680 10681 10682 10684 10685 10682 10681 10684 10684 10681 10679 10675 10675 10676 10673 10674 10675 10676 10675 10668 10661 10657 10655 10651 10646 10645 10646 10645 10649 10659 10659 10654 10651 10647 10640 10635 10632 10626 10621 10617 10615 10612 10606 10600 10597 10591 10587 10585 10582 10583 10590 10599 10607 10606 10600 10589 10577 10575 10571 10560 10556 10556 10554 10549 10542 10534 10529 10522 10515
10663 10665 10674 10674 10660 10651 10650 10653 10659 10664 10670 10680 10685 10686 10687 10687 10685 10680 10675 10672 10672 10673 10675 10676 10673 10673 10675 10673 10671 10669 10664 10665 10667 10665 10665 10667 10665 10662 10657 10652 10649 10645 10642 10639 10637 10638 10635 10638 10648 10651 10648 10645 10641 10634 10629 10624 10617 10611 10609 10607 10604 10597 10590 10588 10586 10582 10574 10572 10575 10571 10576 10596 10599 10584 10573 10568 10566 10558 10546 10544 10546 10541 10535 10529 10521 10516 10510 10503
10651 10655 10667 10665 10649 10640 10637 10640 10653 10660 10663 10672 10676 10676 10676 10675 10674 10673 10668 10663 10663 10664 10664 10666 10666 10665 10664 10662 10661 10657 10653 10655 10658 10656 10656 10657 10653 10648 10645 10642 10641 10637 10632 10629 10629 10628 10625 10628 10637 10641 10639 10637 10634 10628 10623 10617 10609 10604 10603 10601 10594 10586 10581 10576 10576 10578 10568 10563 10568 10556 10557 10586 10588 10563 10556 10557 10551 10541 10533 10533 10534 10529 10522 10515 10509 10504 10496 10490
10639 10647 10656 10651 10640 10634 10627 10632 10647 10653 10656 10665 10666 10661 10660 10662 10664 10664 10662 10656 10654 10655 10653 10654 10656 10655 10654 10653 10650 10646 10644 10646 10648 10646 10645 10646 10641 10636 10634 10633 10632 10628 10623 10620 10620 10617 10614 10618 10625 10629 10628 10627 10625 10622 10614 10607 10601 10598 10598 10595 10586 10579 10574 10565 10565 10568 10562 10560 10557 10540 10547 10577 10571 10547 10546 10545 10533 10524 10521 10524 10522 10514 10508 10502 10497 10492 10484 10477
10629 10634 10638 10635 10633 10629 10621 10628 10642 10644 10648 10653 10650 10647 10648 10651 10654 10656 10654 10649 10645 10644 10642 10643 10647 10646 10644 10643 10638 10637 10635 10634 10638 10637 10632 10632 10632 10628 10625 10623 10621 10617 10614 10612 10612 10608 10605 10608 10613 10616 10618 10617 10615 10613 10605 10596 10592 10593 10594 10587 10579 10573 10566 10559 10557 10554 10554 10557 10542 10525 10543 10563 10551 10537 10539 10531 10517 10511 10511 10514 10510 10500 10495 10490 10484 10480 10472 10464
10616 10617 10621 10624 10623 10620 10618 10627 10632 10631 10636 10638 10636 10639 10639 10639 10645 10647 10644 10639 10635 10634 10633 10635 10638 10635 10633 10631 10627 10629 10626 10622 10625 10625 10620 10620 10623 10621 10615 10611 10610 10608 10605 10603 10602 10599 10598 10600 10601 10602 10605 10606 10607 10603 10594 10587 10585 10587 10587 10580 10572 10567 10558 10553 10551 10544 10545 10547 10531 10522 10538 10544 10532 10528 10527 10512 10499 10498 10501 10501 10495 10487 10482 10478 10473 10467 10459 10451
10601 10602 10610 10614 10612 10610 10614 10622 10620 10616 10622 10624 10623 10628 10629 10629 10636 10637 10632 10630 10628 10626 10626 10627 10627 10624 10622 10621 10619 10619 10615 10611 10610 10611 10612 10612 10613 10611 10605 10600 10600 10599 10597 10595 10592 10590 10590 10592 10593 10590 10587 10590 10596 10592 10583 10578 10577 10579 10580 10573 10566 10560 10551 10546 10541 10534 10532 10528 10524 10526 10524 10522 10523 10516 10506 10495 10484 10484 10490 10485 10478 10473 10468 10465 10460 10453 10446 10439
10586 10590 10600 10605 10601 10600 10607 10610 10605 10604 10611 10610 10607 10614 10619 10620 10625 10625 10621 10623 10623 10618 10615 10616 10615 10613 10613 10612 10607 10604 10603 10600 10597 10600 10605 10603 10599 10598 10594 10591 10590 10590 10588 10586 10582 10580 10580 10585 10588 10582 10574 10575 10580 10576 10570 10568 10568 10569 10570 10564 10557 10551 10546 10537 10526 10524 10519 10507 10517 10528 10507 10503 10520 10506 10481 10478 10474 10473 10476 10468 10461 10459 10453 10451 10447 10439 10433 10427
10574 10583 10593 10595 10586 10586 10596 10599 10595 10596 10597 10591 10590 10600 10608 10610 10614 10616 10615 10614 10612 10605 10601 10605 10606 10604 10604 10599 10590 10589 10593 10590 10588 10592 10594 10589 10585 10583 10583 10583 10582 10581 10579 10575 10573 10570 10568 10574 10580 10572 10565 10566 10565 10560 10557 10555 10556 10561 10561 10554 10547 10543 10537 10525 10514 10516 10509 10492 10506 10521 10496 10491 10511 10493 10464 10464 10465 10463 10461 10453 10448 10446 10441 10439 10433 10426 10422 10416
10565 10576 10580 10577 10571 10575 10587 10590 10585 10579 10575 10574 10578 10589 10598 10602 10606 10609 10605 10600 10597 10594 10592 10594 10598 10595 10590 10584 10576 10578 10585 10583 10582 10585 10580 10573 10571 10570 10572 10574 10572 10570 10568 10565 10564 10560 10556 10563 10569 10560 10553 10557 10555 10548 10543 10541 10543 10551 10554 10547 10538 10531 10523 10514 10508 10509 10499 10485 10495 10503 10489 10489 10496 10473 10455 10457 10455 10451 10447 10440 10437 10435 10431 10428 10421 10416 10412 10404
10552 10564 10566 10563 10559 10562 10571 10575 10569 10561 10563 10567 10569 10579 10590 10595 10597 10597 10591 10584 10584 10586 10581 10578 10586 10587 10576 10571 10566 10568 10579 10579 10572 10572 10566 10558 10558 10559 10561 10564 10563 10561 10559 10555 10554 10549 10544 10551 10556 10547 10540 10546 10546 10536 10531 10530 10529 10538 10549 10542 10526 10515 10508 10504 10502 10499 10489 10482 10485 10482 10479 10489 10483 10456 10448 10452 10445 10439 10435 10430 10427 10425 10421 10416 10410 10406 10400 10392
10537 10547 10550 10545 10542 10547 10553 10557 10555 10553 10558 10557 10557 10574 10586 10583 10584 10583 10574 10568 10570 10573 10569 10568 10577 10575 10560 10556 10556 10563 10577 10570 10554 10556 10555 10545 10546 10550 10552 10554 10554 10552 10549 10547 10544 10538 10534 10539 10543 10532 10526 10535 10537 10525 10521 10520 10516 10528 10546 10534 10509 10501 10502 10495 10490 10488 10480 10474 10474 10468 10467 10477 10470 10448 10442 10443 10435 10428 10424 10419 10416 10414 10410 10404 10398 10394 10387 10379
10523 10525 10527 10523 10525 10534 10537 10540 10542 10541 10545 10547 10554 10571 10573 10565 10570 10567 10552 10553 10563 10563 10560 10560 10564 10556 10542 10542 10551 10563 10570 10553 10535 10541 10544 10534 10536 10542 10542 10544 10545 10542 10539 10538 10535 10530 10525 10526 10529 10521 10512 10521 10525 10516 10511 10509 10507 10525 10539 10519 10495 10494 10494 10485 10480 10479 10471 10462 10460 10459 10457 10458 10453 10443 10438 10433 10424 10419 10413 10408 10405 10401 10396 10391 10386 10381 10374 10366
10508 10506 10510 10507 10504 10509 10516 10523 10526 10525 10535 10548 10552 10554 10550 10550 10557 10547 10534 10545 10557 10553 10547 10547 10546 10537 10529 10536 10552 10558 10550 10531 10521 10528 10530 10525 10529 10533 10533 10534 10533 10530 10530 10528 10524 10522 10518 10515 10515 10509 10500 10503 10510 10505 10498 10496 10503 10520 10524 10504 10489 10487 10481 10474 10473 10472 10463 10452 10448 10448 10447 10442 10436 10432 10429 10421 10414 10410 10403 10397 10393 10388 10383 10378 10373 10367 10360 10353